EST,Max TemperatureF,Mean TemperatureF,Min TemperatureF,Max Dew PointF,MeanDew PointF,Min DewpointF,Max Humidity, Mean Humidity, Min Humidity, Max Sea Level PressureIn, Mean Sea Level PressureIn, Min Sea Level PressureIn, Max VisibilityMiles, Mean VisibilityMiles, Min VisibilityMiles, Max Wind SpeedMPH, Mean Wind SpeedMPH, Max Gust SpeedMPH,PrecipitationIn, CloudCover, Events, WindDirDegrees
2014-1-1,19,16,14,14,12,9,86,81,73,30.35,30.28,30.14,10,3,1,12,5,20,0.11,8,Snow,59
2014-1-2,17,12,5,12,8,-5,86,75,61,30.34,30.10,30.02,10,3,0,24,14,32,0.03,8,Snow,20
2014-1-3,12,0,-11,3,-6,-16,86,64,51,30.53,30.41,30.22,10,10,5,12,6,,0.00,1,,216
2014-1-4,32,22,12,22,13,3,67,62,55,30.19,30.06,29.98,10,10,10,16,12,24,0.00,3,,201
2014-1-5,35,28,21,31,26,16,93,85,67,30.04,29.81,29.59,10,2,0,23,7,33,0.38,8,Fog-Snow,17
2014-1-6,19,2,-14,16,-7,-22,86,71,62,30.29,30.01,29.67,10,6,2,23,16,30,0.00,4,Snow,263
2014-1-7,3,-5,-13,-4,-13,-20,73,68,62,30.41,30.36,30.28,10,10,10,16,12,25,0.00,0,,225
2014-1-8,17,8,-2,8,3,-6,84,73,65,30.55,30.45,30.39,10,10,10,8,2,,0.00,3,,216
2014-1-9,27,10,-6,25,9,-12,93,82,71,30.61,30.45,30.26,8,4,1,7,2,,0.02,5,Snow,98
2014-1-10,41,34,28,39,33,25,100,90,81,30.27,30.08,29.68,6,3,1,10,4,,0.38,8,Rain-Snow,169
2014-1-11,43,38,33,41,36,27,100,89,72,29.73,29.52,29.41,10,5,0,13,10,24,0.10,8,Fog-Rain,227
2014-1-12,39,36,32,30,28,25,80,76,70,30.02,29.89,29.74,10,9,7,16,9,25,0.00,5,,215
2014-1-13,45,42,37,39,34,30,86,74,65,29.78,29.68,29.61,10,10,10,14,10,20,0.00,3,,211
2014-1-14,41,34,26,30,26,17,93,76,53,29.83,29.79,29.72,10,7,2,16,6,29,0.00,5,,219
2014-1-15,28,24,21,19,16,10,75,67,58,30.07,29.97,29.81,10,9,5,15,11,30,0.00,8,Snow,244
2014-1-16,30,24,19,27,21,11,93,81,65,29.99,29.73,29.65,10,4,0,18,13,26,0.01,8,Fog-Snow,194
2014-1-17,30,20,7,23,14,2,86,73,63,30.03,29.84,29.66,10,7,1,12,7,21,0.00,7,Snow,246
2014-1-18,19,13,7,16,11,2,93,81,68,30.01,29.91,29.80,10,6,1,14,6,,0.06,6,Snow,153
2014-1-19,28,18,8,21,14,4,92,79,66,29.86,29.77,29.60,10,6,2,26,8,38,0.00,3,,224
2014-1-20,36,28,18,28,22,13,86,71,56,30.00,29.83,29.56,10,8,2,17,8,25,0.01,7,Snow,311
2014-1-21,17,6,-6,12,-1,-13,79,65,42,30.25,30.11,29.97,10,6,2,21,14,29,0.00,5,Snow,12
2014-1-22,12,2,-9,9,2,-15,85,74,55,30.25,30.03,29.95,10,5,2,13,6,20,0.00,7,Snow,204
2014-1-23,12,6,0,5,-2,-6,78,70,61,30.57,30.33,30.03,10,10,8,10,7,18,0.00,4,,250
2014-1-24,19,7,-5,14,0,-12,81,70,56,30.55,30.10,29.63,10,7,1,24,13,34,0.00,4,Snow,216
2014-1-25,30,21,10,23,15,-1,86,75,53,29.85,29.51,29.36,10,4,1,23,17,40,0.00,7,Snow,248
2014-1-26,32,19,6,25,8,-4,85,74,61,29.85,29.61,29.43,10,6,0,16,9,31,0.04,6,Fog-Snow,206
2014-1-27,26,10,-7,21,1,-15,86,67,53,30.43,29.94,29.52,10,7,0,21,13,39,0.02,4,Snow,266
2014-1-28,3,-4,-11,-10,-14,-19,72,64,48,30.49,30.41,30.32,10,10,10,10,7,,0.00,0,,226
2014-1-29,17,8,-2,2,-4,-10,75,61,47,30.30,30.26,30.23,10,10,10,14,10,22,0.00,0,,219
2014-1-30,28,18,9,22,10,-1,81,62,49,30.22,30.01,29.84,10,8,1,24,12,36,0.00,4,Snow,201
2014-1-31,33,30,28,28,25,17,93,80,57,30.16,30.10,29.92,10,4,1,10,5,,0.02,8,Snow,227